[[{"header":{"parameterUnit":"m.s-1","parameterCategory":1,"la1":30.2991,"la2":30.254,"lo1":-89.0895,"lo2":-89.0444,"dy":0.0017,"dx":0.0017,"nx":28,"ny":28,"refTime":"2025-02-04T09:00:00:Z","depth":0,"parameterNumber":2,"parameterNumberName":"U-component_of_WINDS"},"data":[0,0,0,0,0,0,0,0,0,0,0,0,0,0,0,0,0,0,0,0,0,0,0,0,0,0,0,0,0,0,0,0,0,0,0,0,0,0,0,0,0,0,0,0,0,0,0,0,0,0,0,0,0,0,0,0,0,0,0.0343,0.0343,0,0.0361,0.0362,0.0362,0.0339,0.0338,0.0337,0.0337,0.0354,0.0356,0.0357,0,0,0,0,0,0,0,0,0,0,0,0,0,0.0286,0.0288,0.0342,0.0343,0.0343,0.0361,0.0362,0.0362,0.0339,0.0338,0.0337,0.0336,0.0354,0.0356,0.0357,0,0,0,0,0,0,0,0,0,0,0,0,0,0.0309,0.0288,0.0342,0.0334,0.0333,0.0361,0.0362,0.0362,0.0339,0.0338,0.0337,0.0336,0.0354,0.0355,0.0357,0.0394,0,0,0.0363,0.0364,0,0,0,0,0,0,0,0,0.0307,0.0311,0.0335,0.0335,0.0334,0.0347,0.0348,0.0373,0.034,0.0337,0.0337,0.0335,0.0353,0.0355,0.0361,0.0395,0.0396,0.0363,0.0364,0.0365,0.0366,0,0,0,0,0,0,0,0.0306,0.031,0.035,0.0335,0.0335,0.0329,0.0331,0.0353,0.0352,0.0337,0.0336,0.0338,0.0352,0.0359,0.0361,0.0396,0.0363,0.0365,0.0366,0.0367,0.0463,0.0465,0,0,0,0,0,0,0.0305,0.0309,0.0349,0.035,0.0317,0.0331,0.0333,0.0344,0.0351,0.0351,0.0339,0.0337,0.0357,0.0359,0.0362,0.0407,0.0365,0.0367,0.0368,0.0462,0.0464,0.0465,0,0,0,0,0,0,0.0304,0.0309,0.0349,0.0329,0.0334,0.0333,0.0346,0.0345,0.0352,0.0353,0.0353,0.0347,0.0356,0.0359,0.0387,0.0407,0.0368,0.037,0.046,0.0462,0.0464,0.0497,0,0,0,0,0,0,0.0303,0.0309,0.0323,0.033,0.0335,0.0374,0.0347,0.0346,0.0355,0.0353,0.036,0.036,0.0355,0.0384,0.0389,0.0409,0.0371,0.0458,0.0461,0.0464,0.0494,0.05,0.0505,0,0,0,0,0,0.0301,0.0331,0.0324,0.0329,0.0352,0.0375,0.0378,0.0372,0.0357,0.0371,0.0372,0.0359,0.0404,0.0387,0.0392,0.0413,0.0457,0.046,0.0463,0.0491,0.0498,0.0504,0,0,0,0,0,0,0.0325,0.0331,0.0324,0.0357,0.0366,0.0371,0.0388,0.0379,0.0392,0.0389,0.0381,0.0383,0.0413,0.0416,0.0397,0.045,0.0428,0.0432,0.0447,0.0454,0.046,0.0459,0.0373,0,0,0,0,0,0.0335,0.0353,0.0357,0.0385,0.039,0.0389,0.0398,0.0393,0.0402,0.0405,0.0408,0.0417,0.0433,0.0444,0.0458,0.0494,0.0496,0.0511,0.0516,0.0521,0.0525,0.0545,0.0553,0.0476,0.0476,0.0476,0,0,0.0354,0.0359,0.0371,0.039,0.0397,0.0416,0.0392,0.0412,0.0427,0.0408,0.0435,0.0438,0.0447,0.0479,0.0493,0.0482,0.0547,0.0525,0.0528,0.053,0.055,0.0557,0.0563,0.0478,0.0477,0.0477,0,0,0.0399,0.0404,0.043,0.0437,0.0447,0.0446,0.0452,0.046,0.0461,0.0488,0.0475,0.0492,0.0519,0.0527,0.0534,0.0584,0.0573,0.0589,0.0617,0.0637,0.0644,0.0649,0.0668,0.0675,0.0593,0.0593,0.0593,0,0.0421,0.045,0.0444,0.0466,0.0475,0.046,0.0486,0.0493,0.0508,0.0515,0.0502,0.0537,0.0542,0.0577,0.0589,0.0595,0.0603,0.0588,0.0643,0.0649,0.0653,0.0672,0.0679,0.0595,0.0594,0.0594,0.0594,0,0.0478,0.0498,0.0517,0.0532,0.0544,0.0567,0.0565,0.0577,0.0572,0.0572,0.0601,0.0607,0.0623,0.0631,0.0625,0.0665,0.0658,0.0644,0.0622,0.0663,0.068,0.0687,0.0597,0.0597,0.0596,0.0596,0,0,0.0538,0.0551,0.0558,0.0566,0.0577,0.0592,0.0616,0.0633,0.0644,0.0654,0.0675,0.0699,0.0687,0.0696,0.069,0.0708,0.0749,0.0693,0.0693,0.0704,0.0796,0.0806,0.0815,0.0742,0.0743,0.0744,0.0795,0,0.0584,0.0626,0.0622,0.0661,0.068,0.0667,0.0688,0.0697,0.0699,0.0715,0.0716,0.0734,0.0716,0.0722,0.0739,0.0741,0.0768,0.0737,0.0761,0.0762,0.076,0.0823,0.0834,0.0882,0.0802,0.0803,0.0804,0,0.0643,0.0657,0.0699,0.0709,0.0717,0.0736,0.0752,0.0767,0.0778,0.0778,0.0788,0.0781,0.0805,0.0782,0.0816,0.0795,0.0804,0.0807,0.0809,0.0811,0.0786,0.0829,0.0897,0.0905,0.0814,0.0813,0.0812,0,0.0684,0.0714,0.0743,0.075,0.0762,0.0776,0.0781,0.079,0.0801,0.0815,0.0823,0.0839,0.0848,0.0861,0.0858,0.0841,0.0893,0.0869,0.0894,0.0894,0.0906,0.0905,0.0978,0.0911,0.0911,0.091,0.091,0,0.0737,0.0763,0.0762,0.078,0.081,0.0805,0.0835,0.0838,0.0847,0.0866,0.0855,0.0873,0.0868,0.0886,0.0883,0.0913,0.0916,0.0917,0.0917,0.0919,0.0919,0.0926,0.0923,0.0912,0.0912,0.0912,0.0911,0,0.0788,0.0788,0.082,0.0829,0.0832,0.0854,0.0861,0.0879,0.088,0.0904,0.0909,0.0911,0.0932,0.093,0.0953,0.0951,0.0988,0.0983,0.0985,0.0984,0.1009,0.1008,0.109,0.1101,0.1025,0.1026,0.1027,0,0.0821,0.0842,0.0854,0.0866,0.0873,0.0893,0.0905,0.0901,0.0914,0.0928,0.0944,0.0964,0.098,0.1013,0.1016,0.1034,0.103,0.1058,0.1032,0.1035,0.1032,0.1031,0.1034,0.1063,0.1063,0.1064,0.1065,0,0.0882,0.0881,0.0899,0.0917,0.0932,0.0946,0.0959,0.0969,0.0967,0.0982,0.1004,0.1016,0.104,0.1061,0.1078,0.1083,0.1074,0.1073,0.108,0.1082,0.1083,0.1085,0.0999,0.1071,0.107,0.107,0.1069,0.1069,0.0926,0.0944,0.0956,0.0976,0.0986,0.0999,0.1016,0.102,0.1038,0.1059,0.1055,0.108,0.1091,0.1114,0.1121,0.114,0.113,0.114,0.1143,0.1145,0.1149,0.108,0.1143,0.1143,0.1143,0.1143,0.1143,0,0.0986,0.0994,0.1013,0.1032,0.1049,0.1039,0.1053,0.1068,0.109,0.1101,0.1118,0.1143,0.1163,0.1169,0.1188,0.1203,0.1199,0.1208,0.1207,0.1209,0.1156,0.1149,0.1211,0.1211,0.1211,0.1211,0.1211,0.1211,0.102,0.1051,0.1052,0.1088,0.1095,0.112,0.1129,0.1141,0.1151,0.118,0.1197,0.1201,0.1211,0.1231,0.1249,0.125,0.1258,0.1269,0.1269,0.1219,0.1212,0.1206,0.1199,0.1271,0.1271,0.132,0.1321,0.1321]},{"header":{"parameterUnit":"m.s-1","parameterCategory":1,"la1":30.2991,"la2":30.254,"lo1":-89.0895,"lo2":-89.0444,"dy":0.0017,"dx":0.0017,"nx":28,"ny":28,"refTime":"2025-02-04T09:00:00:Z","depth":0,"parameterNumber":3,"parameterNumberName":"V-component_of_WINDS"},"data":[0,0,0,0,0,0,0,0,0,0,0,0,0,0,0,0,0,0,0,0,0,0,0,0,0,0,0,0,0,0,0,0,0,0,0,0,0,0,0,0,0,0,0,0,0,0,0,0,0,0,0,0,0,0,0,0,0,0,1.314,1.314,0,1.3115,1.3115,1.3115,1.3069,1.3068,1.3067,1.3066,1.3041,1.3041,1.3041,0,0,0,0,0,0,0,0,0,0,0,0,0,1.3149,1.3149,1.314,1.314,1.314,1.3115,1.3115,1.3114,1.3069,1.3068,1.3067,1.3066,1.3041,1.3041,1.3041,0,0,0,0,0,0,0,0,0,0,0,0,0,1.3137,1.3149,1.314,1.3114,1.3111,1.3115,1.3115,1.3114,1.3069,1.3068,1.3066,1.3065,1.3041,1.3041,1.3041,1.3069,0,0,1.3042,1.3042,0,0,0,0,0,0,0,0,1.3138,1.3137,1.3118,1.3116,1.3113,1.3094,1.3109,1.3099,1.3069,1.3085,1.3066,1.3064,1.3059,1.3058,1.3056,1.3068,1.3067,1.3042,1.3042,1.3042,1.3042,0,0,0,0,0,0,0,1.3138,1.3137,1.313,1.3118,1.3115,1.3103,1.31,1.3107,1.308,1.3083,1.308,1.3078,1.3058,1.3056,1.3055,1.3066,1.3042,1.3042,1.3042,1.3042,1.31,1.3102,0,0,0,0,0,0,1.3143,1.3138,1.3131,1.3129,1.3122,1.3104,1.3101,1.3101,1.308,1.3075,1.3079,1.3076,1.3056,1.3055,1.3054,1.3086,1.3042,1.3042,1.3042,1.3099,1.3101,1.3102,0,0,0,0,0,0,1.3143,1.3143,1.3132,1.3133,1.3131,1.3106,1.3106,1.3101,1.31,1.3076,1.3071,1.3082,1.3055,1.3054,1.3066,1.3084,1.3042,1.3043,1.3097,1.3099,1.3101,1.3149,0,0,0,0,0,0,1.3144,1.3143,1.3153,1.3134,1.3131,1.3144,1.3107,1.3102,1.31,1.3096,1.3078,1.3074,1.3054,1.3066,1.3066,1.3084,1.3043,1.3095,1.3098,1.3101,1.3146,1.3153,1.3159,0,0,0,0,0,1.3144,1.3168,1.3154,1.3154,1.3143,1.3145,1.3144,1.312,1.3102,1.3112,1.3097,1.3074,1.3082,1.3067,1.3067,1.3086,1.3094,1.3097,1.31,1.3143,1.3151,1.3159,0,0,0,0,0,0,1.3191,1.3165,1.3149,1.3167,1.3159,1.3137,1.3149,1.313,1.3127,1.3123,1.3094,1.309,1.3106,1.3097,1.3081,1.3112,1.3085,1.3088,1.3117,1.3125,1.3131,1.3133,1.3043,0,0,0,0,0,1.3203,1.3207,1.3184,1.3202,1.3198,1.3175,1.3175,1.3158,1.3148,1.3144,1.313,1.3121,1.3122,1.3123,1.3122,1.3144,1.314,1.3157,1.3163,1.3169,1.3172,1.3183,1.3191,1.3112,1.3112,1.3112,0,0,1.3229,1.3215,1.3219,1.3211,1.3202,1.3207,1.3172,1.3178,1.3182,1.3145,1.3155,1.3145,1.3133,1.3151,1.3158,1.3144,1.3193,1.3173,1.3177,1.3177,1.3188,1.3195,1.3202,1.3115,1.3114,1.3114,0,0,1.3278,1.3267,1.3281,1.3274,1.3261,1.3245,1.3249,1.323,1.3222,1.3232,1.3205,1.3208,1.321,1.3203,1.3199,1.3246,1.3225,1.3247,1.328,1.3292,1.3298,1.3303,1.332,1.3327,1.325,1.325,1.325,0,1.3311,1.3317,1.3291,1.3299,1.3297,1.3264,1.3278,1.3272,1.326,1.3259,1.3243,1.3244,1.3234,1.325,1.3261,1.326,1.3263,1.3249,1.3299,1.3304,1.3309,1.3325,1.3331,1.3253,1.3253,1.3252,1.3252,0,1.3358,1.3363,1.3376,1.3365,1.3364,1.3375,1.3352,1.3353,1.3337,1.3323,1.3333,1.332,1.3316,1.3319,1.3302,1.3332,1.3324,1.3304,1.3276,1.3319,1.3334,1.334,1.3257,1.3256,1.3255,1.3254,0,0,1.3436,1.3411,1.3416,1.3411,1.3395,1.3398,1.3408,1.3404,1.3406,1.3399,1.3407,1.3409,1.3391,1.3387,1.337,1.338,1.3418,1.3359,1.3358,1.337,1.3451,1.3466,1.3474,1.3404,1.3405,1.3406,1.3452,0,1.3481,1.3497,1.3474,1.3495,1.3499,1.3467,1.3476,1.3467,1.3455,1.3456,1.3442,1.3445,1.342,1.3418,1.3426,1.3412,1.3434,1.3408,1.3412,1.3412,1.3416,1.3481,1.3497,1.3541,1.3457,1.3458,1.3459,0,1.3536,1.3532,1.3553,1.3536,1.3537,1.3545,1.354,1.3542,1.3531,1.3521,1.3518,1.3497,1.3506,1.3479,1.3491,1.3474,1.3474,1.3467,1.3468,1.3468,1.3438,1.3483,1.3554,1.3561,1.3468,1.3467,1.3466,0,1.3591,1.3591,1.3603,1.36,1.358,1.3586,1.3579,1.3567,1.3566,1.3562,1.3561,1.3558,1.3556,1.3554,1.3533,1.3516,1.3548,1.3519,1.354,1.3541,1.3549,1.3548,1.3621,1.3549,1.3548,1.3548,1.3548,0,1.3645,1.3659,1.3627,1.3635,1.365,1.3624,1.364,1.3629,1.3619,1.3624,1.3597,1.3603,1.3575,1.3577,1.3561,1.3574,1.3573,1.3565,1.3561,1.3568,1.3569,1.3568,1.3564,1.355,1.355,1.3549,1.3549,0,1.3708,1.3688,1.37,1.368,1.3675,1.3687,1.3671,1.3677,1.3663,1.367,1.367,1.3648,1.365,1.3628,1.3626,1.3615,1.3635,1.3625,1.3639,1.3636,1.3658,1.3657,1.3733,1.3742,1.3663,1.3664,1.3665,0,1.3744,1.3754,1.3736,1.3737,1.3731,1.3734,1.3733,1.3708,1.3708,1.3697,1.3705,1.3705,1.3703,1.3707,1.3691,1.3689,1.3679,1.3706,1.3679,1.3686,1.368,1.368,1.3681,1.3712,1.3713,1.3714,1.3714,0,1.3809,1.3799,1.3798,1.3795,1.3795,1.3791,1.3785,1.3788,1.376,1.3762,1.3764,1.3762,1.376,1.376,1.3755,1.3747,1.3727,1.3723,1.3728,1.3735,1.3743,1.374,1.3655,1.3722,1.3721,1.372,1.372,1.372,1.386,1.3868,1.3856,1.3857,1.385,1.3845,1.3851,1.3837,1.3838,1.3834,1.3819,1.3823,1.3813,1.3804,1.3798,1.3801,1.3788,1.3795,1.3797,1.3799,1.3803,1.3742,1.38,1.38,1.38,1.38,1.3799,0,1.3925,1.3916,1.3916,1.3909,1.391,1.389,1.3883,1.3885,1.3889,1.3881,1.388,1.3882,1.3882,1.3865,1.3863,1.3869,1.386,1.3869,1.3869,1.3868,1.3815,1.3811,1.3877,1.3877,1.3877,1.3877,1.3877,1.3877,1.3958,1.397,1.3959,1.3967,1.3958,1.3962,1.3959,1.3955,1.3948,1.3952,1.3952,1.3941,1.393,1.3927,1.3926,1.3921,1.3922,1.3935,1.3927,1.3879,1.3871,1.3864,1.386,1.3935,1.3936,1.3979,1.398,1.398]}]]